User: anonymous   Login
Location: ShareBrained
(45.5589°N, 122.6491°W)
Time: 02:52:41
(UTC-08:00)
Language:

NOAA 19 - Orbit

View from above orbital plane
View from above orbital plane
View from above satellite
View from above satellite

Ground track
Ground track

The orbit data is extracted from the following two-line orbital elements,

1 33591U 09005A   23342.11422266  .00000179  00000-0  12065-3 0  9997
2 33591  99.0774  30.6322 0014744 112.6294 247.6438 14.12882151764509
Epoch (UTC): 08 December 2023 02:44:28
Eccentricity: 0.0014744
inclination: 99.0774°
perigee height: 839 km
apogee height: 860 km
right ascension of ascending node: 30.6322°
argument of perigee: 112.6294°
revolutions per day: 14.12882151
mean anomaly at epoch: 247.6438°
orbit number at epoch: 76450

The dashed part of the orbit path shows where the satellite is in the earth's shadow,  

DLR